Regional Weather Roundup
Issued by NWS

Home | Current Version | Previous Version | Graphics & Text | Print | Product List | Glossary On
Versions: 1 2 3 4 5 6 7 8 9 10 11 12 13 14 15 16 17 18 19 20 21 22 23 24 25 26 27 28 29 30 31 32 33 34 35 36 37 38 39 40 41 42 43 44 45 46 47 48 49 50
000
ASUS45 KBOU 251310
RWRCO

WEATHER ROUNDUP FOR COLORADO
NATIONAL WEATHER SERVICE DENVER/BOULDER CO
700 AM MDT FRI MAY 25 2018

NOTE: "FAIR" INDICATES FEW OR NO CLOUDS BELOW 12000 FEET WITH NO
SIGNIFICANT WEATHER AND/OR OBSTRUCTIONS TO VISIBILITY.

COZ001>005-013-030-031-251400-
...NORTHWEST COLORADO...

CITY           SKY/WX    TMP DP  RH WIND       PRES   REMARKS
CRAIG          FAIR      41  37  86 W3        30.20R
HAYDEN         FAIR      48  34  58 E10       30.22S
MEEKER         FAIR      46  35  65 CALM      30.20S
RANGELY        FAIR      52  30  43 SE9       30.12R
RABBIT EARS PA FAIR      46  25  42 SW5       30.44S
STEAMBOAT SPGS FAIR      41  35  79 CALM      30.24R
WALDEN         FAIR      37  30  75 CALM      30.33R
$$

COZ006>008-011-251400-
...WEST CENTRAL VALLEYS...

CITY           SKY/WX    TMP DP  RH WIND       PRES   REMARKS
GRAND JUNCTION FAIR      59  29  31 E13       30.09R
MONTROSE       FAIR      50  22  33 E8        30.18R
EAGLE          FAIR      42  27  55 E5        30.30R
RIFLE          FAIR      49  30  48 CALM      30.18R
DELTA          FAIR      56  28  33 E5        30.15R
NUCLA          NOT AVBL
$$

COZ017>023-064>068-251400-
...SOUTHWEST COLORADO...

CITY           SKY/WX    TMP DP  RH WIND       PRES   REMARKS
DURANGO        FAIR      45  20  36 CALM      30.25R
CORTEZ         FAIR      50  25  37 NE6       30.21R
PAGOSA SPRINGS FAIR      42  11  28 CALM      30.33R
TELLURIDE      FAIR      48  17  28 CALM      30.40R
WOLF CREEK PAS FAIR      45   5  19 SW3       30.60S
$$

COZ009-010-012-014-032>034-037-058>063-251400-
...CENTRAL COLORADO...

CITY           SKY/WX    TMP DP  RH WIND       PRES   REMARKS
ASPEN          FAIR      44  29  55 CALM      30.29R
BUENA VISTA    FAIR      46  26  45 CALM      30.34R
COPPER MTN     FAIR      46  18  31 S7        30.55R
BERTHOUD PASS  FAIR      37  28  70 NW20G26   30.56R
COTTONWOOD PAS FAIR      55  23  28 CALM      30.43R
GUNNISON       FAIR      38  24  57 NE5       30.36R
GRANBY         FAIR      37  32  81 CALM      30.36R
KREMMLING      FAIR      41  34  75 CALM      30.34R
LEADVILLE      FAIR      37  24  59 CALM      30.42R
MONARCH PASS   FAIR      43  18  36 MISG      30.65R
SALIDA         FAIR      49  28  43 N5        30.39R
SUNLIGHT       FAIR      45  18  33 S6        30.49S
WILKERSON PASS FAIR      45  23  42 W5        30.53R
$$

COZ069>075-251400-
...SAN LUIS VALLEY/SANGRE DE CRISTO MOUNTAINS...

CITY           SKY/WX    TMP DP  RH WIND       PRES   REMARKS
ALAMOSA        FAIR      41  26  55 CALM      30.30R
DEL NORTE      FAIR      48  13  24 W14       30.33R
LA VETA PASS   FAIR      48  14  25 SW10      30.55R
SAGUACHE       NOT AVBL
$$

COZ035-036-038>040-251400-
...NORTHERN COLORADO FRONT RANGE...

CITY           SKY/WX    TMP DP  RH WIND       PRES   REMARKS
DENVER INTL AP FAIR      59  40  49 SW12      30.11R
AURORA         NOT AVBL
FRONT RANGE AP FAIR      63  40  43 SW8       30.13R
ERIE MUNI ARPT FAIR      53  46  76 CALM      30.16S
BOULDER MUN AP FAIR      57  45  62 CALM      30.11S
CENTENNIAL     FAIR      59  43  55 S6        30.15R
BROOMFIELD     SUNNY     59  39  47 NW6       30.13S
FORT COLLINS   FAIR      58  46  64 N3        30.11R
LONGMONT       FAIR      56  48  73 CALM      30.12S
$$

COZ041-046-047-076>085-087-088-251400-
...PIKES PEAK/PALMER DIVIDE AND SOUTHERN FOOTHILLS...

CITY           SKY/WX    TMP DP  RH WIND       PRES   REMARKS
COLO. SPRINGS  FAIR      59  41  51 N7        30.19R
A. F. ACADEMY  FAIR      51  38  62 N8        30.20R
SCHRIEVER AFB  NOT AVBL
CHEYENNE MTN   FAIR      65  35  33 CALM      30.18R
ELLICOTT       NOT AVBL
FALCON         NOT AVBL
FORT CARSON    NOT AVBL
LIMON          FAIR      57  43  59 CALM      30.13R
MONUMENT HILL  FAIR      54  37  54 S6        30.24S
CANON CITY     SUNNY     64  37  36 W15       30.14S
WALSENBURG     FAIR      63  36  36 W6        30.19R
TRINIDAD       FAIR      56  35  45 W12       30.17R
$$

COZ042>045-048>051-090-091-251400-
...NORTHEAST COLORADO...

CITY           SKY/WX    TMP DP  RH WIND       PRES   REMARKS
GREELEY ARPT   FAIR      56  49  77 W5        30.10R
AKRON          FAIR      63  44  50 W14       30.07R
BURLINGTON     FAIR      57  50  77 W9        30.05R
WRAY           FAIR      57  50  77 W7        30.03R
YUMA           FAIR      55  46  71 W9        30.04S
STERLING       FAIR      55  50  82 SW7       30.03S
HOLYOKE        FAIR      63  50  63 SW7       30.01S
FORT MORGAN    FAIR      57  46  66 W8        30.08R
$$

COZ086-089-092>099-251400-
...SOUTHEAST COLORADO...

CITY           SKY/WX    TMP DP  RH WIND       PRES   REMARKS
PUEBLO         FAIR      60  40  47 W9        30.10R
LA JUNTA       FAIR      59  43  55 W10       30.07R
LAMAR          FAIR      58  49  72 MISG      30.01R
SPRINGFIELD      N/A     62  47  57 NW18      30.03R
$$



USA.gov is the U.S. government's official web portal to all federal, state and local government web resources and services.